Home   Weather   Bathurst   Past weeks

Flag for Canada Past Weather in Bathurst, New Brunswick, Canada — Yesterday and Last 2 Weeks

54 °F

Passing clouds.

Feels Like: 51 °F
Forecast: 39 / 55 °F
Wind: 9 mph from South

Location: Bathurst Airport

Current Time: Oct 23, 2016 at 5:00:02 AM

Latest Report: Oct 23, 2016 at 4:00 AM

Visibility: 15 mi

Pressure: 29.14 "Hg

Humidity: 94%

Dew Point: 52 °F

Location of BathurstLocation

Past Weather in Bathurst — Graph


Bathurst Temperature Yesterday

Maximum temperature yesterday: 54 °F (at 5:00 AM)
Minimum temperature yesterday: 50 °F (at 12:00 AM)
Average temperature yesterday: 51 °F

High & Low Weather Summary for the Past Weeks

High73 °F (Oct 8, 3:00 PM)100% (Oct 8, 4:00 AM)30.45 "Hg (Oct 8, 4:00 AM)
Low25 °F (Oct 15, 8:00 AM)23% (Oct 11, 3:00 PM)29.14 "Hg (Oct 23, 4:00 AM)
Average49 °F74%30.00 "Hg
* Reported Oct 8 4:00 AM — Oct 23 4:00 AM, Bathurst, Weather by CustomWeather, © 2016

Note: Actual official high and low records may vary slightly from our data, if they occured in-between our weather recording intervals... More about our weather records


Bathurst Weather History for the Previous 24 Hours

Scroll right to see more
Time TempWeatherWind HumidityBarometerVisibility
4:00 AM
Sun, Oct 23
54 °FPassing clouds.9 mph94%29.14 "Hg15 mi
3:00 AM54 °FPassing clouds.7 mph100%29.15 "Hg8 mi
2:49 AM50 °FPassing clouds.2 mph100%29.16 "Hg8 mi
2:00 AM50 °FFog.No wind100%29.15 "Hg1 mi
1:00 AM50 °FDrizzle. Fog.3 mph100%29.16 "Hg1 mi
12:00 AM50 °FDrizzle. Fog.No wind100%29.17 "Hg1 mi
11:00 PM
Sat, Oct 22
50 °FDrizzle. Fog.5 mph100%29.15 "Hg1 mi
10:00 PM50 °FLight rain. Fog.6 mph100%29.17 "Hg1 mi
9:00 PM50 °FLight rain. Fog.15 mph94%29.18 "Hg1 mi
8:00 PM50 °FLight rain. Fog.18 mph100%29.20 "Hg1 mi
7:00 PM50 °FLight rain. Fog.15 mph100%29.22 "Hg1 mi
6:46 PM50 °FLight rain. Fog.14 mph100%29.23 "Hg1 mi
6:00 PM50 °FLight rain. Fog.13 mph100%29.23 "Hg2 mi
5:00 PM50 °FLight rain. Fog.13 mph100%29.26 "Hg1 mi
4:00 PM50 °FLight rain. Fog.10 mph100%29.28 "Hg5 mi
3:00 PM50 °FLight rain. Fog.15 mph100%29.30 "Hg3 mi
2:00 PM52 °FLight rain. Fog.18 mph100%29.33 "Hg1 mi
1:52 PM52 °FLight rain. Fog.15 mph100%29.34 "Hg1 mi
1:00 PM52 °FLight rain. Fog.12 mph100%29.38 "Hg1 mi
12:00 PM52 °FLight rain. Fog.16 mph100%29.43 "Hg2 mi
11:00 AM52 °FLight rain. Fog.12 mph100%29.47 "Hg2 mi
10:00 AM52 °FLight rain. Fog.13 mph100%29.49 "Hg1 mi
9:00 AM52 °FLight rain. Fog.10 mph100%29.53 "Hg1 mi
8:00 AM52 °FFog.12 mph100%29.56 "Hg0 mi
7:00 AM52 °FRain. Fog.7 mph100%29.60 "Hg1 mi
6:00 AM52 °FDrizzle. Fog.9 mph100%29.64 "Hg0 mi
5:00 AM54 °FDrizzle. Fog.6 mph100%29.67 "Hg0 mi
Weather by CustomWeather, © 2016

See weather overviewHow to use our weather pages